| time (UTC) | temp C | wind direction | speed KPH | gust KPH | rain 1hr cm | rain 24hr cm | rain mn cm | humidity % | barometer mb |
| 20260906165941 | 25 | 204 | 0.0 | 0.0 | 0.00 | 0.00 | 0.00 | 72 | 989.2 |
| 20260906165440 | 25 | 59 | 0.0 | 0.0 | 0.00 | 0.00 | 0.00 | 74 | 989.2 |
| 20260906164939 | 25 | 91 | 0.0 | 0.0 | 0.00 | 0.00 | 0.00 | 73 | 989.1 |
| 20260906164438 | 25 | 274 | 0.0 | 0.0 | 0.00 | 0.00 | 0.00 | 74 | 989.4 |
| 20260906163938 | 25 | 352 | 0.0 | 0.0 | 0.00 | 0.00 | 0.00 | 77 | 989.2 |
| 20260906163437 | 25 | 106 | 0.0 | 0.0 | 0.00 | 0.00 | 0.00 | 75 | 989.2 |
| 20260906162936 | 25 | 89 | 0.0 | 0.0 | 0.00 | 0.00 | 0.00 | 72 | 989.5 |
| 20260906162435 | 25 | 52 | 0.0 | 0.0 | 0.00 | 0.00 | 0.00 | 76 | 989.3 |
| 20260906161935 | 25 | 182 | 0.0 | 0.0 | 0.00 | 0.00 | 0.00 | 75 | 989.6 |
| 20260906161434 | 25 | 77 | 0.0 | 0.0 | 0.00 | 0.00 | 0.00 | 76 | 989.5 |
| 20260906160933 | 25 | 202 | 0.0 | 0.0 | 0.00 | 0.00 | 0.00 | 73 | 989.7 |
| 20260906160432 | 24 | 16 | 0.0 | 0.0 | 0.00 | 0.00 | 0.00 | 76 | 989.5 |
| 20260906155931 | 24 | 223 | 0.0 | 0.0 | 0.00 | 0.00 | 0.00 | 74 | 989.5 |
| 20260906155431 | 25 | 41 | 0.0 | 0.0 | 0.00 | 0.00 | 0.00 | 74 | 989.3 |
| 20260906154930 | 25 | 63 | 0.0 | 0.0 | 0.00 | 0.00 | 0.00 | 73 | 989.3 |
| 20260906154429 | 24 | 66 | 0.0 | 0.0 | 0.00 | 0.00 | 0.00 | 75 | 989.3 |
| 20260906153928 | 24 | 49 | 0.0 | 0.0 | 0.00 | 0.00 | 0.00 | 74 | 989.5 |
| 20260906153428 | 24 | 219 | 0.0 | 0.0 | 0.00 | 0.00 | 0.00 | 75 | 989.5 |
| 20260906152927 | 24 | 62 | 0.0 | 0.0 | 0.00 | 0.00 | 0.00 | 75 | 989.4 |
| 20260906152426 | 23 | 184 | 0.0 | 0.0 | 0.00 | 0.00 | 0.00 | 78 | 989.3 |
| 20260906151925 | 23 | 156 | 0.0 | 0.0 | 0.00 | 0.00 | 0.00 | 76 | 989.3 |
| 20260906151424 | 23 | 314 | 0.0 | 0.0 | 0.00 | 0.00 | 0.00 | 77 | 989.2 |
| 20260906150923 | 23 | 18 | 0.0 | 0.0 | 0.00 | 0.00 | 0.00 | 78 | 989.3 |
| 20260906150422 | 23 | 58 | 0.0 | 0.0 | 0.00 | 0.00 | 0.00 | 77 | 989.1 |
| 20260906145922 | 23 | 34 | 0.0 | 0.0 | 0.00 | 0.00 | 0.00 | 77 | 989.1 |
| 20260906145421 | 23 | 197 | 0.0 | 0.0 | 0.00 | 0.00 | 0.00 | 78 | 989.1 |
| 20260906144920 | 22 | 93 | 0.0 | 0.0 | 0.00 | 0.00 | 0.00 | 79 | 989.1 |
| 20260906144420 | 22 | 55 | 0.0 | 0.0 | 0.00 | 0.00 | 0.00 | 79 | 988.9 |
| 20260906143919 | 22 | 84 | 0.0 | 0.0 | 0.00 | 0.00 | 0.00 | 81 | 989.1 |
| 20260906143418 | 22 | 156 | 0.0 | 0.0 | 0.00 | 0.00 | 0.00 | 79 | 989.2 |
| 20260906142917 | 22 | 59 | 0.0 | 0.0 | 0.00 | 0.00 | 0.00 | 81 | 989.3 |
| 20260906142417 | 22 | 234 | 0.0 | 0.0 | 0.00 | 0.00 | 0.00 | 80 | 989.1 |
| 20260906141916 | 21 | 77 | 0.0 | 0.0 | 0.00 | 0.00 | 0.00 | 83 | 989.1 |
| 20260906141415 | 21 | 41 | 0.0 | 0.0 | 0.00 | 0.00 | 0.00 | 84 | 989.1 |
| 20260906140914 | 21 | 59 | 0.0 | 0.0 | 0.00 | 0.00 | 0.00 | 84 | 989.3 |
| 20260906140413 | 21 | 61 | 0.0 | 0.0 | 0.00 | 0.00 | 0.00 | 85 | 989.1 |
| 20260906135912 | 21 | 91 | 0.0 | 0.0 | 0.00 | 0.00 | 0.00 | 84 | 989.4 |
| 20260906135412 | 21 | 56 | 0.0 | 0.0 | 0.00 | 0.00 | 0.00 | 88 | 989.3 |
| 20260906134911 | 21 | 98 | 0.0 | 0.0 | 0.00 | 0.00 | 0.00 | 87 | 989.2 |
| 20260906134410 | 20 | 60 | 0.0 | 0.0 | 0.00 | 0.00 | 0.00 | 90 | 989.0 |
| 20260906133909 | 20 | 49 | 0.0 | 0.0 | 0.00 | 0.00 | 0.00 | 95 | 989.3 |
| 20260906133409 | 20 | 62 | 0.0 | 0.0 | 0.00 | 0.00 | 0.00 | 98 | 989.4 |
| 20260906132908 | 18 | 42 | 0.0 | 0.0 | 0.00 | 0.00 | 0.00 | 99 | 989.3 |
| 20260906132407 | 18 | 39 | 0.0 | 0.0 | 0.00 | 0.00 | 0.00 | 99 | 989.5 |
| 20260906131906 | 18 | 50 | 0.0 | 0.0 | 0.00 | 0.00 | 0.00 | 99 | 989.1 |
| 20260906131405 | 18 | 37 | 0.0 | 0.0 | 0.00 | 0.00 | 0.00 | 99 | 989.4 |
| 20260906130905 | 17 | 37 | 0.0 | 0.0 | 0.00 | 0.00 | 0.00 | 99 | 989.3 |
| 20260906130404 | 17 | 38 | 0.0 | 0.0 | 0.00 | 0.00 | 0.00 | 99 | 989.3 |
| 20260906125903 | 17 | 335 | 0.0 | 0.0 | 0.00 | 0.00 | 0.00 | 99 | 989.1 |
| 20260906125402 | 17 | 336 | 0.0 | 0.0 | 0.00 | 0.00 | 0.00 | 99 | 988.9 |
| 20260906124901 | 17 | 83 | 0.0 | 0.0 | 0.00 | 0.00 | 0.00 | 99 | 988.9 |
| 20260906124400 | 17 | 85 | 0.0 | 0.0 | 0.00 | 0.00 | 0.00 | 99 | 988.7 |
| 20260906123900 | 17 | 54 | 0.0 | 0.0 | 0.00 | 0.00 | 0.00 | 99 | 988.9 |
| 20260906123359 | 17 | 60 | 0.0 | 0.0 | 0.00 | 0.00 | 0.00 | 99 | 988.8 |
| 20260906122858 | 17 | 107 | 0.0 | 0.0 | 0.00 | 0.00 | 0.00 | 99 | 988.7 |
| 20260906122357 | 17 | 37 | 0.0 | 0.0 | 0.00 | 0.00 | 0.00 | 99 | 988.9 |
| 20260906121857 | 17 | 14 | 0.0 | 0.0 | 0.00 | 0.00 | 0.00 | 99 | 988.8 |
| 20260906121356 | 17 | 22 | 0.0 | 0.0 | 0.00 | 0.00 | 0.00 | 99 | 988.7 |
| 20260906120855 | 17 | 20 | 0.0 | 0.0 | 0.00 | 0.00 | 0.00 | 99 | 988.7 |
| 20260906120354 | 17 | 46 | 0.0 | 0.0 | 0.00 | 0.00 | 0.00 | 99 | 988.7 |
| 20260906115853 | 17 | 35 | 0.0 | 0.0 | 0.00 | 0.00 | 0.00 | 99 | 988.5 |
| 20260906115352 | 17 | 22 | 0.0 | 0.0 | 0.00 | 0.00 | 0.00 | 99 | 988.4 |
| 20260906114851 | 17 | 24 | 0.0 | 0.0 | 0.00 | 0.00 | 0.00 | 99 | 988.3 |
| 20260906114350 | 17 | 47 | 0.0 | 0.0 | 0.00 | 0.00 | 0.00 | 99 | 988.3 |
| 20260906113849 | 17 | 87 | 0.0 | 0.0 | 0.00 | 0.00 | 0.00 | 99 | 988.0 |
| 20260906113349 | 17 | 60 | 0.0 | 0.0 | 0.00 | 0.00 | 0.00 | 99 | 988.2 |
| 20260906112848 | 17 | 39 | 0.0 | 0.0 | 0.00 | 0.00 | 0.00 | 99 | 988.2 |
| 20260906112347 | 17 | 175 | 0.0 | 0.0 | 0.00 | 0.00 | 0.00 | 99 | 988.1 |
| 20260906111846 | 17 | 306 | 0.0 | 0.0 | 0.00 | 0.00 | 0.00 | 99 | 988.1 |
| 20260906111346 | 17 | 9 | 0.0 | 0.0 | 0.00 | 0.00 | 0.00 | 99 | 988.4 |
| 20260906110845 | 17 | 358 | 0.0 | 0.0 | 0.00 | 0.00 | 0.00 | 99 | 988.2 |
| 20260906110344 | 17 | 357 | 0.0 | 0.0 | 0.00 | 0.00 | 0.00 | 99 | 988.1 |
| 20260906105843 | 16 | 338 | 0.0 | 0.0 | 0.00 | 0.00 | 0.00 | 99 | 988.1 |
| 20260906105342 | 16 | 336 | 0.0 | 0.0 | 0.00 | 0.00 | 0.00 | 99 | 988.2 |
| 20260906104841 | 16 | 336 | 0.0 | 0.0 | 0.00 | 0.00 | 0.00 | 99 | 988.2 |
| 20260906104340 | 16 | 336 | 0.0 | 0.0 | 0.00 | 0.00 | 0.00 | 99 | 987.9 |
| 20260906103839 | 16 | 336 | 0.0 | 0.0 | 0.00 | 0.00 | 0.00 | 99 | 987.9 |
| 20260906103339 | 16 | 336 | 0.0 | 0.0 | 0.00 | 0.00 | 0.00 | 99 | 987.6 |
| 20260906102838 | 16 | 336 | 0.0 | 0.0 | 0.00 | 0.00 | 0.00 | 99 | 987.7 |
| 20260906102337 | 16 | 336 | 0.0 | 0.0 | 0.00 | 0.00 | 0.00 | 99 | 987.7 |
| 20260906101837 | 16 | 336 | 0.0 | 0.0 | 0.00 | 0.00 | 0.00 | 99 | 987.6 |
| 20260906101336 | 16 | 336 | 0.0 | 0.0 | 0.00 | 0.00 | 0.00 | 99 | 987.4 |
| 20260906100835 | 16 | 338 | 0.0 | 0.0 | 0.00 | 0.00 | 0.00 | 99 | 987.4 |
| 20260906100334 | 16 | 338 | 0.0 | 0.0 | 0.00 | 0.00 | 0.00 | 99 | 987.2 |
| 20260906095833 | 16 | 338 | 0.0 | 0.0 | 0.00 | 0.00 | 0.00 | 99 | 987.4 |
| 20260906095332 | 16 | 341 | 0.0 | 0.0 | 0.00 | 0.00 | 0.00 | 99 | 987.4 |
| 20260906094831 | 15 | 340 | 0.0 | 0.0 | 0.00 | 0.00 | 0.00 | 99 | 987.5 |
| 20260906094330 | 15 | 340 | 0.0 | 0.0 | 0.00 | 0.00 | 0.00 | 99 | 987.4 |
| 20260906093829 | 15 | 340 | 0.0 | 0.0 | 0.00 | 0.00 | 0.00 | 99 | 987.4 |
| 20260906093329 | 15 | 340 | 0.0 | 0.0 | 0.00 | 0.00 | 0.00 | 99 | 987.3 |
| 20260906092828 | 15 | 340 | 0.0 | 0.0 | 0.00 | 0.00 | 0.00 | 99 | 987.3 |
| 20260906092327 | 15 | 340 | 0.0 | 0.0 | 0.00 | 0.00 | 0.00 | 99 | 987.3 |
| 20260906091827 | 15 | 340 | 0.0 | 0.0 | 0.00 | 0.00 | 0.00 | 99 | 987.3 |
| 20260906091325 | 15 | 340 | 0.0 | 0.0 | 0.00 | 0.00 | 0.00 | 99 | 987.4 |
| 20260906090824 | 15 | 340 | 0.0 | 0.0 | 0.00 | 0.00 | 0.00 | 99 | 987.4 |
| 20260906090322 | 16 | 340 | 0.0 | 0.0 | 0.00 | 0.00 | 0.00 | 99 | 987.6 |
| 20260906085821 | 16 | 340 | 0.0 | 0.0 | 0.00 | 0.00 | 0.00 | 99 | 987.6 |
| 20260906085321 | 15 | 340 | 0.0 | 0.0 | 0.00 | 0.00 | 0.00 | 99 | 987.6 |
| 20260906084820 | 15 | 340 | 0.0 | 0.0 | 0.00 | 0.00 | 0.00 | 99 | 987.4 |
| 20260906084319 | 15 | 340 | 0.0 | 0.0 | 0.00 | 0.00 | 0.00 | 99 | 987.7 |
| 20260906083818 | 16 | 340 | 0.0 | 0.0 | 0.00 | 0.00 | 0.00 | 99 | 987.7 |
| 20260906083317 | 16 | 340 | 0.0 | 0.0 | 0.00 | 0.00 | 0.00 | 99 | 987.4 |
| 20260906082817 | 16 | 340 | 0.0 | 0.0 | 0.00 | 0.00 | 0.00 | 99 | 987.5 |
| 20260906082316 | 16 | 340 | 0.0 | 0.0 | 0.00 | 0.00 | 0.00 | 99 | 987.3 |
| 20260906081815 | 16 | 340 | 0.0 | 0.0 | 0.00 | 0.00 | 0.00 | 99 | 987.3 |
| 20260906081314 | 16 | 340 | 0.0 | 0.0 | 0.00 | 0.00 | 0.00 | 99 | 987.4 |
| 20260906080813 | 16 | 340 | 0.0 | 0.0 | 0.00 | 0.00 | 0.00 | 99 | 987.7 |
| 20260906080312 | 16 | 340 | 0.0 | 0.0 | 0.00 | 0.00 | 0.00 | 99 | 987.5 |
| 20260906075811 | 16 | 340 | 0.0 | 0.0 | 0.00 | 0.00 | 0.00 | 99 | 987.4 |
| 20260906075310 | 16 | 340 | 0.0 | 0.0 | 0.00 | 0.00 | 0.00 | 99 | 987.6 |
| 20260906074809 | 16 | 340 | 0.0 | 0.0 | 0.00 | 0.00 | 0.00 | 99 | 987.7 |
| 20260906074309 | 16 | 340 | 0.0 | 0.0 | 0.00 | 0.00 | 0.00 | 99 | 987.6 |
| 20260906073808 | 16 | 338 | 0.0 | 0.0 | 0.00 | 0.00 | 0.00 | 99 | 987.6 |
| 20260906073307 | 16 | 340 | 0.0 | 0.0 | 0.00 | 0.00 | 0.00 | 99 | 987.6 |
| 20260906072806 | 16 | 340 | 0.0 | 0.0 | 0.00 | 0.00 | 0.00 | 99 | 987.7 |
| 20260906072306 | 16 | 340 | 0.0 | 0.0 | 0.00 | 0.00 | 0.00 | 99 | 987.7 |
| 20260906071804 | 16 | 340 | 0.0 | 0.0 | 0.00 | 0.00 | 0.00 | 99 | 987.8 |
| 20260906071304 | 16 | 340 | 0.0 | 0.0 | 0.00 | 0.00 | 0.00 | 99 | 987.7 |
| 20260906070803 | 16 | 340 | 0.0 | 0.0 | 0.00 | 0.00 | 0.00 | 99 | 987.6 |
| 20260906070302 | 16 | 340 | 0.0 | 0.0 | 0.00 | 0.00 | 0.00 | 99 | 987.7 |
| 20260906065802 | 16 | 340 | 0.0 | 0.0 | 0.00 | 0.00 | 0.00 | 99 | 987.6 |
| 20260906065301 | 16 | 340 | 0.0 | 0.0 | 0.00 | 0.00 | 0.00 | 99 | 987.8 |
| 20260906064800 | 16 | 340 | 0.0 | 0.0 | 0.00 | 0.00 | 0.00 | 99 | 987.7 |
| 20260906064259 | 16 | 340 | 0.0 | 0.0 | 0.00 | 0.00 | 0.00 | 99 | 987.8 |
| 20260906063759 | 17 | 340 | 0.0 | 0.0 | 0.00 | 0.00 | 0.00 | 99 | 987.8 |
| 20260906063258 | 17 | 340 | 0.0 | 0.0 | 0.00 | 0.00 | 0.00 | 99 | 987.8 |
| 20260906062757 | 17 | 340 | 0.0 | 0.0 | 0.00 | 0.00 | 0.00 | 99 | 988.1 |
| 20260906062257 | 17 | 340 | 0.0 | 0.0 | 0.00 | 0.00 | 0.00 | 99 | 988.0 |
| 20260906061756 | 17 | 340 | 0.0 | 0.0 | 0.00 | 0.00 | 0.00 | 99 | 987.9 |
| 20260906061255 | 17 | 340 | 0.0 | 0.0 | 0.00 | 0.00 | 0.00 | 99 | 987.9 |
| 20260906060754 | 17 | 340 | 0.0 | 0.0 | 0.00 | 0.00 | 0.00 | 99 | 987.9 |
| 20260906060253 | 17 | 340 | 0.0 | 0.0 | 0.00 | 0.00 | 0.00 | 99 | 987.6 |
| 20260906055752 | 17 | 342 | 0.0 | 0.0 | 0.00 | 0.00 | 0.00 | 99 | 987.7 |
| 20260906055252 | 17 | 342 | 0.0 | 0.0 | 0.00 | 0.00 | 0.00 | 99 | 987.7 |
| 20260906054751 | 17 | 349 | 0.0 | 0.0 | 0.00 | 0.00 | 0.00 | 99 | 987.6 |
| 20260906054250 | 17 | 349 | 0.0 | 0.0 | 0.00 | 0.00 | 0.00 | 99 | 987.7 |
| 20260906053749 | 17 | 342 | 0.0 | 0.0 | 0.00 | 0.00 | 0.00 | 99 | 987.5 |
| 20260906053248 | 17 | 349 | 0.0 | 0.0 | 0.00 | 0.00 | 0.00 | 99 | 987.7 |
| 20260906052747 | 17 | 349 | 0.0 | 0.0 | 0.00 | 0.00 | 0.00 | 99 | 987.8 |
| 20260906052247 | 17 | 349 | 0.0 | 0.0 | 0.00 | 0.00 | 0.00 | 99 | 987.7 |
| 20260906051746 | 17 | 349 | 0.0 | 0.0 | 0.00 | 0.00 | 0.00 | 99 | 987.6 |
| 20260906051245 | 17 | 349 | 0.0 | 0.0 | 0.00 | 0.00 | 0.00 | 99 | 987.7 |
| 20260906050744 | 18 | 349 | 0.0 | 0.0 | 0.00 | 0.00 | 0.00 | 99 | 987.8 |
| 20260906050243 | 18 | 349 | 0.0 | 0.0 | 0.00 | 0.00 | 0.00 | 99 | 987.6 |
| 20260906045742 | 18 | 349 | 0.0 | 0.0 | 0.00 | 0.00 | 0.00 | 99 | 987.7 |
| 20260906045241 | 18 | 349 | 0.0 | 0.0 | 0.00 | 0.00 | 0.00 | 99 | 987.8 |
| 20260906044741 | 18 | 349 | 0.0 | 0.0 | 0.00 | 0.00 | 0.00 | 99 | 987.9 |
| 20260906044240 | 18 | 349 | 0.0 | 0.0 | 0.00 | 0.00 | 0.00 | 98 | 987.8 |
| 20260906043739 | 18 | 349 | 0.0 | 0.0 | 0.00 | 0.00 | 0.00 | 99 | 987.9 |
| 20260906043238 | 18 | 349 | 0.0 | 0.0 | 0.00 | 0.00 | 0.00 | 98 | 987.8 |
| 20260906042738 | 18 | 342 | 0.0 | 0.0 | 0.00 | 0.00 | 0.00 | 98 | 987.6 |
| 20260906042237 | 18 | 344 | 0.0 | 0.0 | 0.00 | 0.00 | 0.00 | 98 | 987.7 |
| 20260906041736 | 18 | 344 | 0.0 | 0.0 | 0.00 | 0.00 | 0.00 | 98 | 987.6 |
| 20260906041235 | 18 | 344 | 0.0 | 0.0 | 0.00 | 0.00 | 0.00 | 98 | 987.5 |
| 20260906040735 | 18 | 338 | 0.0 | 0.0 | 0.00 | 0.00 | 0.00 | 98 | 987.5 |
| 20260906040234 | 18 | 332 | 0.0 | 0.0 | 0.00 | 0.00 | 0.00 | 98 | 987.4 |
| 20260906035733 | 18 | 1 | 0.0 | 0.0 | 0.00 | 0.00 | 0.00 | 98 | 987.1 |
| 20260906035232 | 18 | 1 | 0.0 | 0.0 | 0.00 | 0.00 | 0.00 | 98 | 987.1 |
| 20260906034732 | 18 | 1 | 0.0 | 0.0 | 0.00 | 0.00 | 0.00 | 98 | 987.1 |
| 20260906034231 | 18 | 5 | 0.0 | 0.0 | 0.00 | 0.00 | 0.00 | 97 | 987.2 |
| 20260906033730 | 19 | 5 | 0.0 | 0.0 | 0.00 | 0.00 | 0.00 | 97 | 987.1 |
| 20260906033229 | 19 | 5 | 0.0 | 0.0 | 0.00 | 0.00 | 0.00 | 97 | 986.8 |
| 20260906032729 | 19 | 5 | 0.0 | 0.0 | 0.00 | 0.00 | 0.00 | 97 | 987.0 |
| 20260906032228 | 20 | 5 | 0.0 | 0.0 | 0.00 | 0.00 | 0.00 | 97 | 986.9 |
| 20260906031727 | 20 | 5 | 0.0 | 0.0 | 0.00 | 0.00 | 0.00 | 97 | 987.1 |
| 20260906031226 | 20 | 6 | 0.0 | 0.0 | 0.00 | 0.00 | 0.00 | 97 | 986.9 |
| 20260906030725 | 20 | 5 | 0.0 | 0.0 | 0.00 | 0.00 | 0.00 | 96 | 986.8 |
| 20260906030224 | 20 | 5 | 0.0 | 0.0 | 0.00 | 0.00 | 0.00 | 96 | 986.9 |
| 20260906025723 | 20 | 22 | 0.0 | 0.0 | 0.00 | 0.00 | 0.00 | 96 | 986.8 |
| 20260906025223 | 20 | 41 | 0.0 | 0.0 | 0.00 | 0.00 | 0.00 | 96 | 986.6 |
| 20260906024722 | 20 | 354 | 0.0 | 0.0 | 0.00 | 0.00 | 0.00 | 97 | 986.6 |
| 20260906024221 | 20 | 355 | 0.0 | 0.0 | 0.00 | 0.00 | 0.00 | 97 | 986.5 |
| 20260906023720 | 20 | 9 | 0.0 | 0.0 | 0.00 | 0.00 | 0.00 | 97 | 986.4 |
| 20260906023219 | 20 | 14 | 0.0 | 0.0 | 0.00 | 0.00 | 0.00 | 97 | 986.3 |
| 20260906022719 | 20 | 0 | 0.0 | 0.0 | 0.00 | 0.00 | 0.00 | 97 | 986.2 |
| 20260906022218 | 21 | 0 | 0.0 | 0.0 | 0.00 | 0.00 | 0.00 | 97 | 986.3 |
| 20260906021717 | 20 | 359 | 0.0 | 0.0 | 0.00 | 0.00 | 0.00 | 98 | 986.2 |
| 20260906021216 | 20 | 12 | 0.0 | 0.0 | 0.00 | 0.00 | 0.00 | 97 | 986.1 |
| 20260906020716 | 20 | 355 | 0.0 | 0.0 | 0.00 | 0.00 | 0.00 | 97 | 985.9 |
| 20260906020215 | 21 | 355 | 0.0 | 0.0 | 0.00 | 0.00 | 0.00 | 97 | 986.0 |
| 20260906015714 | 20 | 15 | 0.0 | 0.0 | 0.00 | 0.00 | 0.00 | 97 | 985.7 |
| 20260906015213 | 21 | 15 | 0.0 | 0.0 | 0.00 | 0.00 | 0.00 | 97 | 985.8 |
| 20260906014712 | 21 | 15 | 0.0 | 0.0 | 0.00 | 0.00 | 0.00 | 97 | 985.9 |
| 20260906014211 | 21 | 358 | 0.0 | 0.0 | 0.00 | 0.00 | 0.00 | 97 | 985.6 |
| 20260906013710 | 21 | 346 | 0.0 | 0.0 | 0.00 | 0.00 | 0.00 | 97 | 985.5 |
| 20260906013209 | 21 | 356 | 0.0 | 0.0 | 0.00 | 0.00 | 0.00 | 97 | 985.2 |
| 20260906012708 | 21 | 356 | 0.0 | 0.0 | 0.00 | 0.00 | 0.00 | 96 | 985.4 |
| 20260906012208 | 21 | 356 | 0.0 | 0.0 | 0.00 | 0.00 | 0.00 | 96 | 985.2 |
| 20260906011707 | 21 | 356 | 0.0 | 0.0 | 0.00 | 0.00 | 0.00 | 96 | 985.2 |
| 20260906011206 | 21 | 356 | 0.0 | 0.0 | 0.00 | 0.00 | 0.00 | 96 | 985.1 |
| 20260906010705 | 21 | 356 | 0.0 | 0.0 | 0.00 | 0.00 | 0.00 | 96 | 985.1 |
| 20260906010204 | 22 | 356 | 0.0 | 0.0 | 0.00 | 0.00 | 0.00 | 96 | 985.1 |
| 20260906005703 | 22 | 356 | 0.0 | 0.0 | 0.00 | 0.00 | 0.00 | 95 | 985.1 |
| 20260906005203 | 22 | 356 | 0.0 | 0.0 | 0.00 | 0.00 | 0.00 | 95 | 985.1 |
| 20260906004702 | 22 | 356 | 0.0 | 0.0 | 0.00 | 0.00 | 0.00 | 94 | 984.9 |
| 20260906004201 | 22 | 358 | 0.0 | 0.0 | 0.00 | 0.00 | 0.00 | 94 | 984.8 |
| 20260906003700 | 22 | 349 | 0.0 | 0.0 | 0.00 | 0.00 | 0.00 | 94 | 984.9 |
| 20260906003159 | 22 | 344 | 0.0 | 0.0 | 0.00 | 0.00 | 0.00 | 94 | 984.8 |
| 20260906002659 | 22 | 344 | 0.0 | 0.0 | 0.00 | 0.00 | 0.00 | 93 | 984.9 |
| 20260906002158 | 22 | 344 | 0.0 | 0.0 | 0.00 | 0.00 | 0.00 | 92 | 984.8 |
| 20260906001657 | 23 | 344 | 0.0 | 0.0 | 0.00 | 0.00 | 0.00 | 91 | 984.9 |
| 20260906001156 | 23 | 29 | 0.0 | 0.0 | 0.00 | 0.00 | 0.00 | 90 | 984.8 |
| 20260906000656 | 23 | 16 | 0.0 | 0.0 | 0.00 | 0.00 | 0.00 | 90 | 984.9 |
| 20260906000155 | 23 | 7 | 0.0 | 0.0 | 0.00 | 0.00 | 0.00 | 90 | 984.7 |
| 20260905235654 | 23 | 46 | 0.0 | 0.0 | 0.00 | 0.00 | 0.00 | 90 | 984.8 |
| 20260905235153 | 23 | 33 | 0.0 | 0.0 | 0.00 | 0.00 | 0.00 | 90 | 985.0 |
| 20260905234652 | 23 | 34 | 0.0 | 0.0 | 0.00 | 0.00 | 0.00 | 90 | 985.0 |
| 20260905234152 | 23 | 4 | 0.0 | 0.0 | 0.00 | 0.00 | 0.00 | 89 | 985.1 |
| 20260905233651 | 23 | 4 | 0.0 | 0.0 | 0.00 | 0.00 | 0.00 | 90 | 985.3 |
| 20260905233150 | 23 | 6 | 0.0 | 0.0 | 0.00 | 0.00 | 0.00 | 89 | 985.2 |
| 20260905232649 | 23 | 6 | 0.0 | 0.0 | 0.00 | 0.00 | 0.00 | 89 | 985.2 |
| 20260905232149 | 24 | 6 | 0.0 | 0.0 | 0.00 | 0.00 | 0.00 | 88 | 985.2 |
| 20260905231648 | 24 | 8 | 0.0 | 0.0 | 0.00 | 0.00 | 0.00 | 89 | 985.2 |
| 20260905231147 | 24 | 359 | 0.0 | 0.0 | 0.00 | 0.00 | 0.00 | 88 | 985.3 |
| 20260905230647 | 24 | 344 | 0.0 | 0.0 | 0.00 | 0.00 | 0.00 | 88 | 985.4 |
| 20260905230146 | 24 | 344 | 0.0 | 0.0 | 0.00 | 0.00 | 0.00 | 87 | 985.4 |
| 20260905225645 | 25 | 344 | 0.0 | 0.0 | 0.00 | 0.00 | 0.00 | 87 | 985.5 |
| 20260905225144 | 25 | 347 | 0.0 | 0.0 | 0.00 | 0.00 | 0.00 | 84 | 985.5 |
| 20260905224643 | 25 | 348 | 0.0 | 0.0 | 0.00 | 0.00 | 0.00 | 83 | 985.2 |
| 20260905224142 | 25 | 299 | 0.0 | 0.0 | 0.00 | 0.00 | 0.00 | 79 | 985.1 |
| 20260905223641 | 26 | 44 | 0.0 | 0.0 | 0.00 | 0.00 | 0.00 | 78 | 985.0 |
| 20260905223140 | 26 | 60 | 0.0 | 0.0 | 0.00 | 0.00 | 0.00 | 78 | 985.3 |
| 20260905222640 | 26 | 25 | 0.0 | 0.0 | 0.00 | 0.00 | 0.00 | 77 | 985.2 |
| 20260905222139 | 26 | 348 | 0.0 | 0.0 | 0.00 | 0.00 | 0.00 | 79 | 985.2 |
| 20260905221638 | 26 | 348 | 0.0 | 0.0 | 0.00 | 0.00 | 0.00 | 78 | 985.2 |
| 20260905221137 | 26 | 302 | 0.0 | 0.0 | 0.00 | 0.00 | 0.00 | 76 | 985.3 |
| 20260905220637 | 26 | 160 | 0.0 | 0.0 | 0.00 | 0.00 | 0.00 | 76 | 985.1 |
| 20260905220136 | 27 | 20 | 0.0 | 0.0 | 0.00 | 0.00 | 0.00 | 74 | 985.3 |
| 20260905215635 | 27 | 265 | 0.0 | 0.0 | 0.00 | 0.00 | 0.00 | 71 | 985.3 |
| 20260905215134 | 27 | 338 | 0.0 | 0.0 | 0.00 | 0.00 | 0.00 | 73 | 985.4 |
| 20260905214633 | 27 | 352 | 0.0 | 0.0 | 0.00 | 0.00 | 0.00 | 73 | 985.4 |
| 20260905214132 | 26 | 350 | 0.0 | 0.0 | 0.00 | 0.00 | 0.00 | 74 | 985.4 |
| 20260905213632 | 25 | 336 | 0.0 | 0.0 | 0.00 | 0.00 | 0.00 | 78 | 985.6 |
| 20260905213131 | 26 | 336 | 0.0 | 0.0 | 0.00 | 0.00 | 0.00 | 83 | 985.8 |
| 20260905212630 | 26 | 337 | 0.0 | 0.0 | 0.00 | 0.00 | 0.00 | 81 | 985.7 |
| 20260905212129 | 26 | 334 | 0.0 | 0.0 | 0.00 | 0.00 | 0.00 | 79 | 985.6 |
| 20260905211628 | 26 | 322 | 0.0 | 0.0 | 0.00 | 0.00 | 0.00 | 77 | 985.5 |
| 20260905211127 | 25 | 213 | 0.0 | 0.0 | 0.00 | 0.00 | 0.00 | 78 | 985.6 |
| 20260905210627 | 25 | 325 | 0.0 | 0.0 | 0.00 | 0.00 | 0.00 | 80 | 985.5 |
| 20260905210126 | 25 | 338 | 0.0 | 0.0 | 0.00 | 0.00 | 0.00 | 82 | 985.7 |
| 20260905205626 | 25 | 6 | 0.0 | 0.0 | 0.00 | 0.00 | 0.00 | 82 | 985.8 |
| 20260905205125 | 25 | 157 | 0.0 | 0.0 | 0.00 | 0.00 | 0.00 | 81 | 985.6 |
| 20260905204624 | 25 | 119 | 0.0 | 0.0 | 0.00 | 0.00 | 0.00 | 79 | 985.3 |
| 20260905204123 | 26 | 52 | 0.0 | 1.6 | 0.00 | 0.00 | 0.00 | 79 | 985.4 |
| 20260905203622 | 26 | 58 | 0.0 | 0.0 | 0.00 | 0.00 | 0.00 | 78 | 985.3 |
| 20260905203121 | 26 | 177 | 0.0 | 1.6 | 0.00 | 0.00 | 0.00 | 76 | 985.4 |
| 20260905202621 | 27 | 81 | 0.0 | 0.0 | 0.00 | 0.00 | 0.00 | 74 | 985.4 |
| 20260905202120 | 26 | 320 | 0.0 | 0.0 | 0.00 | 0.00 | 0.00 | 81 | 985.3 |
| 20260905201619 | 25 | 339 | 0.0 | 0.0 | 0.00 | 0.00 | 0.00 | 81 | 985.6 |
| 20260905201119 | 25 | 86 | 0.0 | 0.0 | 0.00 | 0.00 | 0.00 | 83 | 985.9 |
| 20260905200618 | 25 | 59 | 0.0 | 0.0 | 0.00 | 0.00 | 0.00 | 83 | 985.9 |
| 20260905200117 | 25 | 318 | 0.0 | 0.0 | 0.00 | 0.00 | 0.00 | 84 | 985.9 |
| 20260905195616 | 25 | 336 | 0.0 | 0.0 | 0.00 | 0.00 | 0.00 | 82 | 986.0 |
| 20260905195115 | 25 | 7 | 0.0 | 0.0 | 0.00 | 0.00 | 0.00 | 83 | 985.9 |
| 20260905194614 | 25 | 323 | 0.0 | 0.0 | 0.00 | 0.00 | 0.00 | 82 | 986.0 |
| 20260905194114 | 25 | 47 | 0.0 | 0.0 | 0.00 | 0.00 | 0.00 | 81 | 985.9 |
| 20260905193613 | 25 | 308 | 0.0 | 0.0 | 0.00 | 0.00 | 0.00 | 79 | 986.0 |
| 20260905193112 | 25 | 93 | 0.0 | 0.0 | 0.00 | 0.00 | 0.00 | 82 | 985.6 |
| 20260905192611 | 25 | 301 | 0.0 | 0.0 | 0.00 | 0.00 | 0.00 | 80 | 985.9 |
| 20260905192110 | 25 | 172 | 0.0 | 0.0 | 0.00 | 0.00 | 0.00 | 82 | 986.0 |
| 20260905191609 | 25 | 103 | 0.0 | 3.2 | 0.00 | 0.00 | 0.00 | 80 | 986.0 |
| 20260905191109 | 25 | 169 | 0.0 | 0.0 | 0.00 | 0.00 | 0.00 | 79 | 985.9 |
| 20260905190608 | 25 | 52 | 0.0 | 0.0 | 0.00 | 0.00 | 0.00 | 81 | 986.0 |
| 20260905190107 | 25 | 80 | 0.0 | 0.0 | 0.00 | 0.00 | 0.00 | 80 | 985.8 |
| 20260905185606 | 26 | 109 | 0.0 | 0.0 | 0.00 | 0.00 | 0.00 | 79 | 985.7 |
| 20260905185105 | 26 | 135 | 0.0 | 1.6 | 0.00 | 0.00 | 0.00 | 79 | 985.8 |
| 20260905184604 | 26 | 110 | 0.0 | 0.0 | 0.00 | 0.00 | 0.00 | 81 | 985.9 |
| 20260905184103 | 26 | 175 | 3.2 | 4.8 | 0.00 | 0.00 | 0.00 | 80 | 985.9 |
| 20260905183603 | 26 | 131 | 0.0 | 0.0 | 0.00 | 0.00 | 0.00 | 80 | 985.8 |
| 20260905183102 | 26 | 194 | 0.0 | 1.6 | 0.00 | 0.00 | 0.00 | 79 | 985.8 |
| 20260905182601 | 26 | 51 | 0.0 | 0.0 | 0.00 | 0.00 | 0.00 | 78 | 985.8 |
| 20260905182100 | 25 | 63 | 0.0 | 0.0 | 0.00 | 0.00 | 0.00 | 81 | 986.0 |
| 20260905181559 | 25 | 75 | 3.2 | 6.4 | 0.00 | 0.00 | 0.00 | 80 | 985.9 |
| 20260905181059 | 25 | 80 | 1.6 | 4.8 | 0.00 | 0.00 | 0.00 | 81 | 986.2 |
| 20260905180558 | 25 | 95 | 0.0 | 0.0 | 0.00 | 0.00 | 0.00 | 83 | 986.2 |
| 20260905180057 | 26 | 183 | 0.0 | 1.6 | 0.00 | 0.00 | 0.00 | 80 | 986.2 |
| 20260905175556 | 25 | 130 | 0.0 | 0.0 | 0.00 | 0.00 | 0.00 | 82 | 986.4 |
| 20260905175055 | 25 | 174 | 0.0 | 0.0 | 0.00 | 0.00 | 0.00 | 81 | 986.0 |
| 20260905174554 | 25 | 89 | 3.2 | 4.8 | 0.00 | 0.00 | 0.00 | 81 | 986.1 |
| 20260905174054 | 25 | 81 | 0.0 | 0.0 | 0.00 | 0.00 | 0.00 | 82 | 986.1 |
| 20260905173553 | 26 | 86 | 0.0 | 0.0 | 0.00 | 0.00 | 0.00 | 81 | 986.2 |
| 20260905173052 | 25 | 87 | 0.0 | 0.0 | 0.00 | 0.00 | 0.00 | 82 | 986.3 |
| 20260905172551 | 25 | 71 | 0.0 | 0.0 | 0.00 | 0.00 | 0.00 | 82 | 986.3 |
| 20260905172050 | 25 | 345 | 0.0 | 0.0 | 0.00 | 0.00 | 0.00 | 82 | 986.2 |
| 20260905171549 | 25 | 271 | 0.0 | 0.0 | 0.00 | 0.00 | 0.00 | 83 | 986.3 |
| 20260905171049 | 25 | 131 | 0.0 | 0.0 | 0.00 | 0.00 | 0.00 | 82 | 986.3 |
| 20260905170548 | 25 | 352 | 0.0 | 0.0 | 0.00 | 0.00 | 0.00 | 83 | 986.2 |